| time (UTC) | temp F | wind direction | speed MPH | gust MPH | rain 1hr in | rain 24hr in | rain mn in | humidity % | barometer mb |
| 20260503234026 | 57 | 267 | 3.0 | 8.0 | 0.00 | 0.00 | 0.00 | 40 | 1012.5 |
| 20260503233525 | 57 | 254 | 2.0 | 8.0 | 0.00 | 0.00 | 0.00 | 40 | 1012.5 |
| 20260503233025 | 57 | 252 | 3.0 | 8.0 | 0.00 | 0.00 | 0.00 | 40 | 1012.4 |
| 20260503232802 | 58 | 273 | 3.0 | 8.0 | 0.00 | 0.00 | 0.00 | 39 | 1012.4 |
| 20260503232022 | 58 | 258 | 3.0 | 8.0 | 0.00 | 0.00 | 0.00 | 38 | 1012.5 |
| 20260503231522 | 58 | 275 | 3.0 | 10.0 | 0.00 | 0.00 | 0.00 | 38 | 1012.5 |
| 20260503231027 | 58 | 259 | 3.0 | 10.0 | 0.00 | 0.00 | 0.00 | 39 | 1012.5 |
| 20260503230753 | 59 | 266 | 2.0 | 9.0 | 0.00 | 0.00 | 0.00 | 37 | 1012.4 |
| 20260503230023 | 59 | 268 | 2.0 | 9.0 | 0.00 | 0.00 | 0.00 | 37 | 1012.5 |
| 20260503225745 | 59 | 288 | 3.0 | 8.0 | 0.00 | 0.00 | 0.00 | 36 | 1012.4 |
| 20260503225021 | 59 | 262 | 3.0 | 13.0 | 0.00 | 0.00 | 0.00 | 36 | 1012.3 |
| 20260503224742 | 60 | 257 | 4.0 | 13.0 | 0.00 | 0.00 | 0.00 | 36 | 1012.3 |
| 20260503224019 | 60 | 256 | 4.0 | 9.0 | 0.00 | 0.00 | 0.00 | 37 | 1012.2 |
| 20260503223515 | 60 | 225 | 4.0 | 11.0 | 0.00 | 0.00 | 0.00 | 37 | 1012.2 |
| 20260503223014 | 60 | 264 | 4.0 | 12.0 | 0.00 | 0.00 | 0.00 | 36 | 1012.2 |
| 20260503223001 | 60 | 283 | 4.0 | 12.0 | 0.00 | 0.00 | 0.00 | 37 | 1012.3 |
| 20260503222501 | 60 | 296 | 4.0 | 12.0 | 0.00 | 0.00 | 0.00 | 36 | 1012.2 |
| 20260503221517 | 60 | 324 | 4.0 | 12.0 | 0.00 | 0.00 | 0.00 | 35 | 1012.2 |
| 20260503221014 | 60 | 271 | 5.0 | 12.0 | 0.00 | 0.00 | 0.00 | 36 | 1012.3 |
| 20260503220512 | 60 | 246 | 5.0 | 14.0 | 0.00 | 0.00 | 0.00 | 36 | 1012.3 |
| 20260503220014 | 60 | 253 | 5.0 | 14.0 | 0.00 | 0.00 | 0.00 | 34 | 1012.2 |
| 20260503215512 | 60 | 265 | 4.0 | 13.0 | 0.00 | 0.00 | 0.00 | 36 | 1012.3 |
| 20260503215011 | 60 | 11 | 4.0 | 12.0 | 0.00 | 0.00 | 0.00 | 35 | 1012.3 |
| 20260503214511 | 60 | 0 | 5.0 | 14.0 | 0.00 | 0.00 | 0.00 | 35 | 1012.3 |
| 20260503214011 | 61 | 265 | 6.0 | 14.0 | 0.00 | 0.00 | 0.00 | 35 | 1012.3 |
| 20260503213738 | 61 | 269 | 5.0 | 13.0 | 0.00 | 0.00 | 0.00 | 35 | 1012.3 |
| 20260503213010 | 62 | 286 | 4.0 | 10.0 | 0.00 | 0.00 | 0.00 | 35 | 1012.3 |
| 20260503212512 | 61 | 269 | 4.0 | 11.0 | 0.00 | 0.00 | 0.00 | 33 | 1012.2 |
| 20260503212013 | 60 | 323 | 5.0 | 12.0 | 0.00 | 0.00 | 0.00 | 35 | 1012.2 |
| 20260503211513 | 60 | 308 | 4.0 | 12.0 | 0.00 | 0.00 | 0.00 | 38 | 1012.2 |
| 20260503211010 | 60 | 267 | 4.0 | 15.0 | 0.00 | 0.00 | 0.00 | 37 | 1012.3 |
| 20260503210512 | 60 | 294 | 5.0 | 15.0 | 0.00 | 0.00 | 0.00 | 35 | 1012.2 |
| 20260503210008 | 60 | 291 | 5.0 | 15.0 | 0.00 | 0.00 | 0.00 | 36 | 1012.2 |
| 20260503205506 | 61 | 313 | 5.0 | 15.0 | 0.00 | 0.00 | 0.00 | 35 | 1012.3 |
| 20260503205009 | 61 | 313 | 6.0 | 17.0 | 0.00 | 0.00 | 0.00 | 33 | 1012.3 |
| 20260503204506 | 61 | 257 | 6.0 | 17.0 | 0.00 | 0.00 | 0.00 | 36 | 1012.3 |
| 20260503204007 | 61 | 304 | 5.0 | 15.0 | 0.00 | 0.00 | 0.00 | 37 | 1012.3 |
| 20260503203507 | 61 | 264 | 5.0 | 18.0 | 0.00 | 0.00 | 0.00 | 36 | 1012.3 |
| 20260503203009 | 61 | 292 | 5.0 | 18.0 | 0.00 | 0.00 | 0.00 | 34 | 1012.3 |
| 20260503202725 | 62 | 321 | 5.0 | 15.0 | 0.00 | 0.00 | 0.00 | 39 | 1012.4 |
| 20260503202027 | 59 | 266 | 7.0 | 16.0 | 0.00 | 0.00 | 0.00 | 34 | 1012.5 |
| 20260503202012 | 59 | 321 | 6.0 | 15.0 | 0.00 | 0.00 | 0.00 | 34 | 1012.3 |
| 20260503201012 | 60 | 258 | 6.0 | 16.0 | 0.00 | 0.00 | 0.00 | 33 | 1012.5 |
| 20260503200513 | 60 | 268 | 5.0 | 15.0 | 0.00 | 0.00 | 0.00 | 38 | 1012.4 |
| 20260503200012 | 59 | 355 | 6.0 | 15.0 | 0.00 | 0.00 | 0.00 | 34 | 1012.6 |
| 20260503195505 | 59 | 338 | 6.0 | 17.0 | 0.00 | 0.00 | 0.00 | 36 | 1012.7 |
| 20260503195011 | 60 | 309 | 6.0 | 17.0 | 0.00 | 0.00 | 0.00 | 38 | 1012.7 |
| 20260503194507 | 60 | 229 | 5.0 | 15.0 | 0.00 | 0.00 | 0.00 | 35 | 1012.8 |
| 20260503194005 | 59 | 324 | 6.0 | 15.0 | 0.00 | 0.00 | 0.00 | 40 | 1013.0 |
| 20260503193519 | 57 | 255 | 7.0 | 18.0 | 0.00 | 0.00 | 0.00 | 38 | 1013.0 |
| 20260503193008 | 59 | 235 | 7.0 | 18.0 | 0.00 | 0.00 | 0.00 | 37 | 1013.0 |
| 20260503192506 | 58 | 228 | 6.0 | 17.0 | 0.00 | 0.00 | 0.00 | 41 | 1012.9 |
| 20260503192009 | 57 | 323 | 5.0 | 13.0 | 0.00 | 0.00 | 0.00 | 39 | 1013.1 |
| 20260503191458 | 58 | 320 | 6.0 | 15.0 | 0.00 | 0.00 | 0.00 | 44 | 1013.2 |
| 20260503190953 | 58 | 260 | 6.0 | 16.0 | 0.00 | 0.00 | 0.00 | 38 | 1013.2 |
| 20260503190448 | 60 | 248 | 6.0 | 16.0 | 0.00 | 0.00 | 0.00 | 39 | 1013.4 |
| 20260503185949 | 60 | 254 | 6.0 | 13.0 | 0.00 | 0.00 | 0.00 | 40 | 1013.3 |
| 20260503185934 | 59 | 271 | 6.0 | 15.0 | 0.00 | 0.00 | 0.00 | 40 | 1013.3 |
| 20260503184952 | 58 | 274 | 6.0 | 15.0 | 0.00 | 0.00 | 0.00 | 39 | 1013.4 |
| 20260503184452 | 59 | 348 | 6.0 | 15.0 | 0.00 | 0.00 | 0.00 | 40 | 1013.5 |
| 20260503184206 | 58 | 333 | 5.0 | 15.0 | 0.00 | 0.00 | 0.00 | 42 | 1013.5 |
| 20260503183446 | 58 | 288 | 5.0 | 14.0 | 0.00 | 0.00 | 0.00 | 39 | 1013.5 |
| 20260503182947 | 59 | 307 | 6.0 | 14.0 | 0.00 | 0.00 | 0.00 | 39 | 1013.5 |
| 20260503182448 | 58 | 338 | 6.0 | 18.0 | 0.00 | 0.00 | 0.00 | 40 | 1013.5 |
| 20260503181947 | 58 | 236 | 6.0 | 18.0 | 0.00 | 0.00 | 0.00 | 38 | 1013.6 |
| 20260503181447 | 58 | 325 | 5.0 | 15.0 | 0.00 | 0.00 | 0.00 | 40 | 1013.6 |
| 20260503180947 | 58 | 285 | 6.0 | 16.0 | 0.00 | 0.00 | 0.00 | 38 | 1013.7 |
| 20260503180446 | 57 | 263 | 7.0 | 19.0 | 0.00 | 0.00 | 0.00 | 40 | 1013.6 |
| 20260503175953 | 57 | 250 | 6.0 | 19.0 | 0.00 | 0.00 | 0.00 | 39 | 1013.7 |
| 20260503175725 | 58 | 254 | 6.0 | 15.0 | 0.00 | 0.00 | 0.00 | 37 | 1013.7 |
| 20260503174955 | 59 | 258 | 5.0 | 15.0 | 0.00 | 0.00 | 0.00 | 40 | 1013.8 |
| 20260503174452 | 57 | 270 | 5.0 | 12.0 | 0.00 | 0.00 | 0.00 | 43 | 1013.6 |
| 20260503173949 | 55 | 242 | 5.0 | 12.0 | 0.00 | 0.00 | 0.00 | 41 | 1013.7 |
| 20260503173440 | 56 | 306 | 5.0 | 16.0 | 0.00 | 0.00 | 0.00 | 41 | 1013.8 |
| 20260503172934 | 57 | 233 | 6.0 | 16.0 | 0.00 | 0.00 | 0.00 | 42 | 1013.7 |
| 20260503172429 | 56 | 281 | 5.0 | 14.0 | 0.00 | 0.00 | 0.00 | 40 | 1013.8 |
| 20260503171918 | 56 | 267 | 6.0 | 14.0 | 0.00 | 0.00 | 0.00 | 40 | 1013.8 |
| 20260503171409 | 56 | 259 | 8.0 | 20.0 | 0.00 | 0.00 | 0.00 | 41 | 1013.9 |
| 20260503170914 | 56 | 298 | 7.0 | 20.0 | 0.00 | 0.00 | 0.00 | 37 | 1014.0 |
| 20260503170355 | 56 | 305 | 6.0 | 17.0 | 0.00 | 0.00 | 0.00 | 39 | 1014.0 |
| 20260503150638 | 50 | 257 | 6.0 | 13.0 | 0.00 | 0.00 | 0.00 | 53 | 1014.8 |
| 20260503150133 | 50 | 276 | 6.0 | 14.0 | 0.00 | 0.00 | 0.00 | 49 | 1014.7 |
| 20260503130919 | 48 | 336 | 6.0 | 15.0 | 0.00 | 0.00 | 0.00 | 58 | 1014.7 |
| 20260503130412 | 47 | 315 | 6.0 | 17.0 | 0.00 | 0.00 | 0.00 | 59 | 1014.7 |
| 20260503130140 | 47 | 254 | 7.0 | 17.0 | 0.00 | 0.00 | 0.00 | 60 | 1014.7 |
| 20260503110345 | 42 | 310 | 2.0 | 8.0 | 0.00 | 0.00 | 0.00 | 72 | 1013.6 |
| 20260503090327 | 44 | 259 | 2.0 | 7.0 | 0.00 | 0.00 | 0.00 | 71 | 1012.3 |
| 20260503081255 | 42 | 315 | 2.0 | 5.0 | 0.00 | 0.00 | 0.00 | 76 | 1012.0 |
| 20260503080753 | 42 | 273 | 2.0 | 6.0 | 0.00 | 0.00 | 0.00 | 76 | 1012.0 |
| 20260503080255 | 42 | 333 | 2.0 | 6.0 | 0.00 | 0.00 | 0.00 | 76 | 1011.9 |
| 20260503080244 | 42 | 338 | 2.0 | 8.0 | 0.00 | 0.00 | 0.00 | 76 | 1011.8 |
| 20260503072747 | 42 | 242 | 2.0 | 8.0 | 0.00 | 0.00 | 0.00 | 75 | 1011.5 |
| 20260503072507 | 43 | 265 | 2.0 | 4.0 | 0.00 | 0.00 | 0.00 | 75 | 1011.5 |
| 20260503071759 | 43 | 271 | 2.0 | 5.0 | 0.00 | 0.00 | 0.00 | 75 | 1011.6 |
| 20260503071243 | 43 | 312 | 2.0 | 6.0 | 0.00 | 0.00 | 0.00 | 75 | 1011.5 |
| 20260503071005 | 42 | 266 | 2.0 | 6.0 | 0.00 | 0.00 | 0.00 | 76 | 1011.5 |
| 20260503070242 | 42 | 273 | 2.0 | 6.0 | 0.00 | 0.00 | 0.00 | 76 | 1011.4 |
| 20260503054633 | 43 | 320 | 2.0 | 5.0 | 0.00 | 0.00 | 0.00 | 74 | 1011.7 |
| 20260503054353 | 43 | 320 | 1.0 | 3.0 | 0.00 | 0.00 | 0.00 | 74 | 1011.7 |
| 20260503053621 | 42 | 320 | 1.0 | 3.0 | 0.00 | 0.00 | 0.00 | 74 | 1011.7 |
| 20260503053115 | 43 | 320 | 1.0 | 3.0 | 0.00 | 0.00 | 0.00 | 73 | 1011.8 |
| 20260503052608 | 43 | 320 | 0.0 | 2.0 | 0.00 | 0.00 | 0.00 | 73 | 1011.9 |
| 20260503052101 | 43 | 320 | 0.0 | 2.0 | 0.00 | 0.00 | 0.00 | 73 | 1012.0 |
| 20260503051814 | 43 | 320 | 1.0 | 4.0 | 0.00 | 0.00 | 0.00 | 72 | 1012.0 |
| 20260503051050 | 43 | 320 | 1.0 | 4.0 | 0.00 | 0.00 | 0.00 | 72 | 1012.0 |
| 20260503050804 | 44 | 320 | 1.0 | 3.0 | 0.00 | 0.00 | 0.00 | 71 | 1012.1 |
| 20260503050052 | 44 | 320 | 1.0 | 3.0 | 0.00 | 0.00 | 0.00 | 71 | 1012.1 |
| 20260503045535 | 44 | 320 | 1.0 | 3.0 | 0.00 | 0.00 | 0.00 | 70 | 1012.1 |
| 20260503045026 | 44 | 320 | 1.0 | 5.0 | 0.00 | 0.00 | 0.00 | 70 | 1012.2 |
| 20260503044751 | 45 | 320 | 1.0 | 5.0 | 0.00 | 0.00 | 0.00 | 69 | 1012.2 |
| 20260503044013 | 45 | 320 | 2.0 | 5.0 | 0.00 | 0.00 | 0.00 | 69 | 1012.2 |
| 20260503043507 | 45 | 321 | 2.0 | 4.0 | 0.00 | 0.00 | 0.00 | 69 | 1012.2 |
| 20260503043228 | 45 | 321 | 2.0 | 6.0 | 0.00 | 0.00 | 0.00 | 69 | 1012.1 |
| 20260503042454 | 45 | 321 | 2.0 | 6.0 | 0.00 | 0.00 | 0.00 | 68 | 1012.2 |
| 20260503041950 | 46 | 320 | 2.0 | 5.0 | 0.00 | 0.00 | 0.00 | 68 | 1012.3 |
| 20260503041442 | 46 | 250 | 1.0 | 4.0 | 0.00 | 0.00 | 0.00 | 67 | 1012.4 |
| 20260503040937 | 47 | 273 | 2.0 | 6.0 | 0.00 | 0.00 | 0.00 | 66 | 1012.5 |
| 20260503040655 | 47 | 273 | 3.0 | 8.0 | 0.00 | 0.00 | 0.00 | 65 | 1012.5 |
| 20260503035927 | 47 | 267 | 3.0 | 9.0 | 0.00 | 0.00 | 0.00 | 65 | 1012.4 |
| 20260503035420 | 47 | 283 | 3.0 | 9.0 | 0.00 | 0.00 | 0.00 | 65 | 1012.5 |
| 20260503034913 | 47 | 336 | 3.0 | 8.0 | 0.00 | 0.00 | 0.00 | 64 | 1012.4 |
| 20260503034408 | 48 | 284 | 3.0 | 9.0 | 0.00 | 0.00 | 0.00 | 64 | 1012.4 |
| 20260503034118 | 48 | 269 | 4.0 | 10.0 | 0.00 | 0.00 | 0.00 | 64 | 1012.4 |
| 20260503033615 | 48 | 315 | 3.0 | 10.0 | 0.00 | 0.00 | 0.00 | 64 | 1012.5 |
| 20260503033113 | 48 | 286 | 2.0 | 7.0 | 0.00 | 0.00 | 0.00 | 63 | 1012.6 |
| 20260503032344 | 48 | 302 | 3.0 | 6.0 | 0.00 | 0.00 | 0.00 | 64 | 1012.6 |
| 20260503031837 | 48 | 265 | 3.0 | 9.0 | 0.00 | 0.00 | 0.00 | 63 | 1012.6 |
| 20260503031554 | 49 | 281 | 3.0 | 9.0 | 0.00 | 0.00 | 0.00 | 63 | 1012.6 |
| 20260503030826 | 49 | 274 | 2.0 | 8.0 | 0.00 | 0.00 | 0.00 | 63 | 1012.6 |
| 20260503030535 | 49 | 310 | 3.0 | 11.0 | 0.00 | 0.00 | 0.00 | 63 | 1012.6 |
| 20260503030414 | 49 | 311 | 3.0 | 11.0 | 0.00 | 0.00 | 0.00 | 63 | 1012.6 |
| 20260503025314 | 49 | 310 | 3.0 | 8.0 | 0.00 | 0.00 | 0.00 | 63 | 1012.6 |
| 20260503024814 | 49 | 329 | 2.0 | 8.0 | 0.00 | 0.00 | 0.00 | 63 | 1012.6 |
| 20260503024318 | 49 | 286 | 2.0 | 8.0 | 0.00 | 0.00 | 0.00 | 62 | 1012.7 |
| 20260503023813 | 49 | 277 | 2.0 | 8.0 | 0.00 | 0.00 | 0.00 | 62 | 1012.6 |
| 20260503023310 | 50 | 292 | 3.0 | 10.0 | 0.00 | 0.00 | 0.00 | 61 | 1012.7 |
| 20260503022812 | 50 | 281 | 3.0 | 10.0 | 0.00 | 0.00 | 0.00 | 60 | 1012.6 |
| 20260503022311 | 50 | 287 | 4.0 | 10.0 | 0.00 | 0.00 | 0.00 | 60 | 1012.7 |
| 20260503021814 | 50 | 273 | 4.0 | 10.0 | 0.00 | 0.00 | 0.00 | 59 | 1012.6 |
| 20260503021536 | 50 | 300 | 4.0 | 12.0 | 0.00 | 0.00 | 0.00 | 58 | 1012.6 |
| 20260503020811 | 51 | 306 | 4.0 | 12.0 | 0.00 | 0.00 | 0.00 | 58 | 1012.6 |
| 20260503020540 | 51 | 320 | 3.0 | 9.0 | 0.00 | 0.00 | 0.00 | 58 | 1012.6 |
| 20260503020034 | 51 | 265 | 2.0 | 6.0 | 0.00 | 0.00 | 0.00 | 59 | 1012.6 |
| 20260503015310 | 50 | 297 | 2.0 | 8.0 | 0.00 | 0.00 | 0.00 | 59 | 1012.5 |
| 20260503014809 | 50 | 334 | 2.0 | 10.0 | 0.00 | 0.00 | 0.00 | 60 | 1012.5 |
| 20260503014310 | 50 | 288 | 1.0 | 10.0 | 0.00 | 0.00 | 0.00 | 60 | 1012.5 |
| 20260503014023 | 50 | 298 | 1.0 | 4.0 | 0.00 | 0.00 | 0.00 | 62 | 1012.4 |
| 20260503013258 | 50 | 301 | 1.0 | 3.0 | 0.00 | 0.00 | 0.00 | 60 | 1012.3 |
| 20260503013019 | 50 | 313 | 0.0 | 2.0 | 0.00 | 0.00 | 0.00 | 61 | 1012.3 |
| 20260503012301 | 50 | 314 | 0.0 | 2.0 | 0.00 | 0.00 | 0.00 | 61 | 1012.2 |
| 20260503011757 | 50 | 314 | 0.0 | 2.0 | 0.00 | 0.00 | 0.00 | 59 | 1012.3 |
| 20260503011257 | 50 | 314 | 0.0 | 0.0 | 0.00 | 0.00 | 0.00 | 59 | 1012.1 |
| 20260503010756 | 50 | 314 | 0.0 | 0.0 | 0.00 | 0.00 | 0.00 | 59 | 1012.1 |
| 20260503010301 | 50 | 314 | 0.0 | 0.0 | 0.00 | 0.00 | 0.00 | 57 | 1012.1 |
| 20260503005758 | 50 | 314 | 0.0 | 0.0 | 0.00 | 0.00 | 0.00 | 57 | 1012.1 |
| 20260503005257 | 50 | 314 | 0.0 | 0.0 | 0.00 | 0.00 | 0.00 | 57 | 1012.0 |
| 20260503005030 | 50 | 314 | 0.0 | 2.0 | 0.00 | 0.00 | 0.00 | 58 | 1011.9 |
| 20260503004258 | 50 | 314 | 1.0 | 2.0 | 0.00 | 0.00 | 0.00 | 57 | 1011.8 |
| 20260503003755 | 50 | 314 | 1.0 | 3.0 | 0.00 | 0.00 | 0.00 | 57 | 1011.8 |
| 20260503003255 | 51 | 314 | 1.0 | 3.0 | 0.00 | 0.00 | 0.00 | 58 | 1011.6 |
| 20260503002756 | 51 | 314 | 1.0 | 3.0 | 0.00 | 0.00 | 0.00 | 56 | 1011.7 |
| 20260503002300 | 51 | 314 | 1.0 | 3.0 | 0.00 | 0.00 | 0.00 | 56 | 1011.6 |
| 20260503001800 | 51 | 314 | 1.0 | 3.0 | 0.00 | 0.00 | 0.00 | 56 | 1011.6 |
| 20260503001256 | 51 | 314 | 0.0 | 2.0 | 0.00 | 0.00 | 0.00 | 55 | 1011.5 |
| 20260503000754 | 51 | 314 | 1.0 | 3.0 | 0.00 | 0.00 | 0.00 | 54 | 1011.6 |
| 20260503000255 | 51 | 315 | 1.0 | 3.0 | 0.00 | 0.00 | 0.00 | 54 | 1011.6 |
| 20260502235754 | 52 | 315 | 1.0 | 3.0 | 0.00 | 0.00 | 0.00 | 55 | 1011.5 |
| 20260502235253 | 52 | 315 | 1.0 | 3.0 | 0.00 | 0.00 | 0.00 | 54 | 1011.5 |
| 20260502234757 | 52 | 315 | 1.0 | 6.0 | 0.00 | 0.00 | 0.00 | 53 | 1011.5 |